TimeCDT,TemperatureF,Dew PointF,Humidity,Sea Level PressureIn,VisibilityMPH,Wind Direction,Wind SpeedMPH,Gust SpeedMPH,PrecipitationIn,Events,Conditions,WindDirDegrees,DateUTC
12:15 AM,39.2,30.2,70,30.06,9.0,North,-9999.0,-,0.05,,Overcast,0,2013-04-10 05:15:00
12:35 AM,37.4,30.2,75,29.97,9.0,North,-9999.0,-,0.08,,Overcast,0,2013-04-10 05:35:00
12:55 AM,37.4,30.2,75,29.99,10.0,North,-9999.0,-,0.09,,Overcast,0,2013-04-10 05:55:00
1:15 AM,37.4,30.2,75,29.97,10.0,North,-9999.0,-,N/A,,Overcast,0,2013-04-10 06:15:00
1:35 AM,37.4,28.4,70,29.97,10.0,North,-9999.0,-,N/A,,Overcast,0,2013-04-10 06:35:00
1:55 AM,37.4,28.4,70,30.02,10.0,North,-9999.0,-,N/A,,Overcast,0,2013-04-10 06:55:00
2:15 AM,37.4,28.4,70,30.03,10.0,North,-9999.0,-,N/A,,Overcast,0,2013-04-10 07:15:00
2:35 AM,37.4,28.4,70,30.06,10.0,North,-9999.0,-,N/A,,Overcast,0,2013-04-10 07:35:00
2:55 AM,37.4,28.4,70,30.05,10.0,North,-9999.0,-,N/A,,Overcast,0,2013-04-10 07:55:00
3:15 AM,37.4,28.4,70,30.05,10.0,North,-9999.0,-,N/A,,Overcast,0,2013-04-10 08:15:00
3:35 AM,37.4,26.6,65,30.06,10.0,North,-9999.0,-,N/A,,Overcast,0,2013-04-10 08:35:00
3:55 AM,37.4,26.6,65,30.06,7.0,North,-9999.0,-,N/A,,Overcast,0,2013-04-10 08:55:00
4:15 AM,35.6,28.4,75,30.06,3.0,North,-9999.0,-,N/A,,Overcast,0,2013-04-10 09:15:00
4:35 AM,35.6,26.6,70,30.06,2.5,North,-9999.0,-,N/A,,Overcast,0,2013-04-10 09:35:00
4:55 AM,35.6,26.6,70,29.95,4.0,North,-9999.0,-,N/A,,Overcast,0,2013-04-10 09:55:00
5:15 AM,35.6,26.6,70,29.98,9.0,North,-9999.0,-,N/A,,Overcast,0,2013-04-10 10:15:00
5:35 AM,35.6,26.6,70,29.98,10.0,North,-9999.0,-,N/A,,Overcast,0,2013-04-10 10:35:00
5:55 AM,35.6,26.6,70,29.98,10.0,North,-9999.0,-,N/A,,Overcast,0,2013-04-10 10:55:00
6:15 AM,35.6,26.6,70,30.00,10.0,North,-9999.0,-,N/A,,Overcast,0,2013-04-10 11:15:00
6:35 AM,35.6,26.6,70,30.00,10.0,North,-9999.0,-,N/A,,Overcast,0,2013-04-10 11:35:00
6:55 AM,35.6,26.6,70,29.98,10.0,North,-9999.0,-,N/A,,Overcast,0,2013-04-10 11:55:00
7:15 AM,35.6,26.6,70,29.98,10.0,North,-9999.0,-,N/A,,Overcast,0,2013-04-10 12:15:00
7:35 AM,35.6,26.6,70,29.98,10.0,North,-9999.0,-,N/A,,Overcast,0,2013-04-10 12:35:00
7:55 AM,35.6,26.6,70,30.00,10.0,North,-9999.0,-,N/A,,Overcast,0,2013-04-10 12:55:00
8:15 AM,35.6,26.6,70,30.01,10.0,North,-9999.0,-,N/A,,Overcast,0,2013-04-10 13:15:00
8:35 AM,35.6,26.6,70,30.01,10.0,North,-9999.0,-,N/A,,Overcast,0,2013-04-10 13:35:00
8:55 AM,35.6,26.6,70,30.03,10.0,North,-9999.0,-,N/A,,Overcast,0,2013-04-10 13:55:00
9:15 AM,35.6,26.6,70,30.03,10.0,North,-9999.0,-,N/A,,Overcast,0,2013-04-10 14:15:00
9:35 AM,35.6,26.6,70,30.03,10.0,North,-9999.0,-,N/A,,Overcast,0,2013-04-10 14:35:00
9:55 AM,35.6,26.6,70,30.01,7.0,North,-9999.0,-,N/A,,Overcast,0,2013-04-10 14:55:00
10:15 AM,35.6,26.6,70,29.99,5.0,North,-9999.0,-,N/A,,Overcast,0,2013-04-10 15:15:00
10:35 AM,35.6,26.6,70,30.00,5.0,North,-9999.0,-,N/A,,Overcast,0,2013-04-10 15:35:00
10:55 AM,35.6,28.4,75,29.98,8.0,North,-9999.0,-,N/A,,Overcast,0,2013-04-10 15:55:00
11:15 AM,35.6,28.4,75,29.94,10.0,North,-9999.0,-,N/A,,Overcast,0,2013-04-10 16:15:00
11:35 AM,35.6,28.4,75,29.98,10.0,North,-9999.0,-,N/A,,Overcast,0,2013-04-10 16:35:00
12:15 PM,35.6,26.6,70,30.00,10.0,North,-9999.0,-,N/A,,Overcast,0,2013-04-10 17:15:00
12:35 PM,37.4,28.4,70,30.03,2.0,North,-9999.0,-,0.01,,Overcast,0,2013-04-10 17:35:00
1:15 PM,37.4,28.4,70,30.05,2.5,North,-9999.0,-,N/A,,Overcast,0,2013-04-10 18:15:00
1:35 PM,35.6,28.4,75,30.03,3.0,North,-9999.0,-,N/A,,Overcast,0,2013-04-10 18:35:00
1:55 PM,37.4,28.4,70,30.03,3.0,North,-9999.0,-,N/A,,Overcast,0,2013-04-10 18:55:00
2:15 PM,37.4,28.4,70,30.03,4.0,North,-9999.0,-,N/A,,Overcast,0,2013-04-10 19:15:00
2:35 PM,37.4,28.4,70,30.01,3.0,North,-9999.0,-,N/A,,Overcast,0,2013-04-10 19:35:00
2:55 PM,37.4,28.4,70,30.01,4.0,North,-9999.0,-,0.01,,Overcast,0,2013-04-10 19:55:00
3:15 PM,37.4,28.4,70,29.99,5.0,North,-9999.0,-,N/A,,Overcast,0,2013-04-10 20:15:00
3:35 PM,37.4,28.4,70,29.98,5.0,North,-9999.0,-,N/A,,Overcast,0,2013-04-10 20:35:00
3:55 PM,37.4,28.4,70,29.99,7.0,North,-9999.0,-,N/A,,Overcast,0,2013-04-10 20:55:00
4:15 PM,37.4,28.4,70,29.99,3.0,North,-9999.0,-,0.01,,Overcast,0,2013-04-10 21:15:00
4:35 PM,37.4,28.4,70,29.98,4.0,North,-9999.0,-,0.01,,Overcast,0,2013-04-10 21:35:00
4:55 PM,37.4,30.2,75,29.98,7.0,North,-9999.0,-,0.01,,Overcast,0,2013-04-10 21:55:00
5:15 PM,37.4,30.2,75,29.95,7.0,North,-9999.0,-,N/A,,Overcast,0,2013-04-10 22:15:00
5:35 PM,37.4,30.2,75,29.93,10.0,North,-9999.0,-,N/A,,Overcast,0,2013-04-10 22:35:00
5:55 PM,37.4,30.2,75,29.95,9.0,North,-9999.0,-,N/A,,Overcast,0,2013-04-10 22:55:00
6:15 PM,37.4,30.2,75,29.94,9.0,North,-9999.0,-,N/A,,Overcast,0,2013-04-10 23:15:00
6:35 PM,37.4,30.2,75,29.92,10.0,North,-9999.0,-,0.02,,Overcast,0,2013-04-10 23:35:00
6:55 PM,37.4,30.2,75,29.90,7.0,North,-9999.0,-,0.02,,Overcast,0,2013-04-10 23:55:00
7:15 PM,37.4,30.2,75,29.89,7.0,North,-9999.0,-,N/A,,Overcast,0,2013-04-11 00:15:00
7:35 PM,37.4,30.2,75,29.87,4.0,North,-9999.0,-,N/A,,Overcast,0,2013-04-11 00:35:00
7:55 PM,37.4,30.2,75,29.88,5.0,North,-9999.0,-,N/A,,Overcast,0,2013-04-11 00:55:00
8:15 PM,37.4,30.2,75,29.87,3.0,North,-9999.0,-,N/A,,Overcast,0,2013-04-11 01:15:00
8:35 PM,37.4,30.2,75,29.86,2.5,North,-9999.0,-,N/A,,Overcast,0,2013-04-11 01:35:00
8:55 PM,37.4,30.2,75,29.86,2.5,North,-9999.0,-,N/A,,Overcast,0,2013-04-11 01:55:00
9:15 PM,39.2,30.2,70,29.88,2.5,North,-9999.0,-,N/A,,Overcast,0,2013-04-11 02:15:00
9:35 PM,39.2,30.2,70,29.88,2.5,North,-9999.0,-,N/A,,Overcast,0,2013-04-11 02:35:00
9:55 PM,39.2,30.2,70,29.86,3.0,North,-9999.0,-,N/A,,Overcast,0,2013-04-11 02:55:00
10:15 PM,39.2,30.2,70,29.86,3.0,North,-9999.0,-,0.01,,Overcast,0,2013-04-11 03:15:00
10:35 PM,39.2,30.2,70,29.85,6.0,North,-9999.0,-,0.01,,Overcast,0,2013-04-11 03:35:00
10:55 PM,39.2,30.2,70,29.83,7.0,North,-9999.0,-,0.01,,Overcast,0,2013-04-11 03:55:00
11:15 PM,39.2,30.2,70,29.82,8.0,North,-9999.0,-,0.01,,Overcast,0,2013-04-11 04:15:00
11:35 PM,39.2,30.2,70,29.83,4.0,North,-9999.0,-,0.01,,Overcast,0,2013-04-11 04:35:00
11:55 PM,39.2,30.2,70,29.83,4.0,North,-9999.0,-,0.03,,Overcast,0,2013-04-11 04:55:00